Time,TemperatureF,DewpointF,PressureIn,WindDirection,WindDirectionDegrees,WindSpeedMPH,WindSpeedGustMPH,Humidity,HourlyPrecipIn,Conditions,Clouds,dailyrainin,SoftwareType,DateUTC
2013-10-02 00:01:00,63.2,59.0,30.04,North,0,0.0,0.0,86,0.00,,,0.00,WUHU216HW,2013-10-02 04:01:00,
2013-10-02 00:06:00,63.0,59.1,30.04,North,0,0.0,0.0,87,0.00,,,0.00,WUHU216HW,2013-10-02 04:06:00,
2013-10-02 00:11:00,63.0,59.1,30.04,North,0,0.0,0.0,87,0.00,,,0.00,WUHU216HW,2013-10-02 04:11:00,
2013-10-02 00:16:00,63.0,59.1,30.04,North,0,0.0,0.0,87,0.00,,,0.00,WUHU216HW,2013-10-02 04:16:00,
2013-10-02 00:21:00,63.0,59.1,30.04,North,0,0.0,0.0,87,0.00,,,0.00,WUHU216HW,2013-10-02 04:21:00,
2013-10-02 00:26:00,63.0,59.1,30.04,North,0,0.0,0.0,87,0.00,,,0.00,WUHU216HW,2013-10-02 04:26:00,
2013-10-02 00:31:00,62.8,59.0,30.04,North,0,0.0,0.0,87,0.00,,,0.00,WUHU216HW,2013-10-02 04:31:00,
2013-10-02 00:36:00,62.6,58.8,30.04,North,0,0.0,0.0,87,0.00,,,0.00,WUHU216HW,2013-10-02 04:36:00,
2013-10-02 00:41:00,62.6,58.8,30.04,North,0,0.0,0.0,87,0.00,,,0.00,WUHU216HW,2013-10-02 04:41:00,
2013-10-02 00:46:00,62.5,58.6,30.04,North,0,0.0,0.0,87,0.00,,,0.00,WUHU216HW,2013-10-02 04:46:00,
2013-10-02 00:51:00,62.5,58.6,30.04,North,0,0.0,0.0,87,0.00,,,0.00,WUHU216HW,2013-10-02 04:51:00,
2013-10-02 00:56:00,62.3,58.4,30.04,North,0,0.0,0.0,87,0.00,,,0.00,WUHU216HW,2013-10-02 04:56:00,
2013-10-02 01:01:00,62.1,58.2,30.04,North,0,0.0,0.0,87,0.00,,,0.00,WUHU216HW,2013-10-02 05:01:00,
2013-10-02 01:06:00,61.9,58.1,30.04,North,0,0.0,0.0,87,0.00,,,0.00,WUHU216HW,2013-10-02 05:06:00,
2013-10-02 01:11:00,61.7,57.9,30.04,North,0,0.0,0.0,87,0.00,,,0.00,WUHU216HW,2013-10-02 05:11:00,
2013-10-02 01:16:00,61.7,58.2,30.04,North,0,0.0,0.0,88,0.00,,,0.00,WUHU216HW,2013-10-02 05:16:00,
2013-10-02 01:21:00,61.7,58.2,30.04,North,0,0.0,0.0,88,0.00,,,0.00,WUHU216HW,2013-10-02 05:21:00,
2013-10-02 01:26:00,61.6,58.1,30.04,North,0,0.0,0.0,88,0.00,,,0.00,WUHU216HW,2013-10-02 05:26:00,
2013-10-02 01:31:00,61.6,58.1,30.04,North,0,0.0,0.0,88,0.00,,,0.00,WUHU216HW,2013-10-02 05:31:00,
2013-10-02 01:36:00,61.4,57.9,30.04,North,0,0.0,0.0,88,0.00,,,0.00,WUHU216HW,2013-10-02 05:36:00,
2013-10-02 01:41:00,61.6,58.1,30.03,North,0,0.0,0.0,88,0.00,,,0.00,WUHU216HW,2013-10-02 05:41:00,
2013-10-02 01:46:00,61.6,58.1,30.04,North,0,0.0,0.0,88,0.00,,,0.00,WUHU216HW,2013-10-02 05:46:00,
2013-10-02 01:51:00,61.6,58.3,30.03,North,0,0.0,0.0,89,0.00,,,0.00,WUHU216HW,2013-10-02 05:51:00,
2013-10-02 01:56:00,61.4,57.9,30.04,North,0,0.0,0.0,88,0.00,,,0.00,WUHU216HW,2013-10-02 05:56:00,
2013-10-02 02:01:00,61.2,57.7,30.04,North,0,0.0,0.0,88,0.00,,,0.00,WUHU216HW,2013-10-02 06:01:00,
2013-10-02 02:06:00,61.0,57.5,30.04,North,0,0.0,0.0,88,0.00,,,0.00,WUHU216HW,2013-10-02 06:06:00,
2013-10-02 02:11:00,61.0,57.5,30.04,North,0,0.0,0.0,88,0.00,,,0.00,WUHU216HW,2013-10-02 06:11:00,
2013-10-02 02:16:00,60.8,57.3,30.04,North,0,0.0,0.0,88,0.00,,,0.00,WUHU216HW,2013-10-02 06:16:00,
2013-10-02 02:21:00,60.8,57.3,30.04,North,0,0.0,0.0,88,0.00,,,0.00,WUHU216HW,2013-10-02 06:21:00,
2013-10-02 02:26:00,60.8,57.3,30.04,North,0,0.0,0.0,88,0.00,,,0.00,WUHU216HW,2013-10-02 06:26:00,
2013-10-02 02:31:00,60.7,57.2,30.04,North,0,0.0,0.0,88,0.00,,,0.00,WUHU216HW,2013-10-02 06:31:00,
2013-10-02 02:36:00,60.7,57.2,30.03,North,0,0.0,0.0,88,0.00,,,0.00,WUHU216HW,2013-10-02 06:36:00,
2013-10-02 02:41:00,60.5,57.0,30.04,North,0,0.0,0.0,88,0.00,,,0.00,WUHU216HW,2013-10-02 06:41:00,
2013-10-02 02:46:00,60.5,57.0,30.04,North,0,0.0,0.0,88,0.00,,,0.00,WUHU216HW,2013-10-02 06:46:00,
2013-10-02 02:51:00,60.3,56.8,30.04,North,0,0.0,0.0,88,0.00,,,0.00,WUHU216HW,2013-10-02 06:51:00,
2013-10-02 02:56:00,60.3,57.1,30.03,North,0,0.0,0.0,89,0.00,,,0.00,WUHU216HW,2013-10-02 06:56:00,
2013-10-02 03:01:00,60.3,57.1,30.03,North,0,0.0,0.0,89,0.00,,,0.00,WUHU216HW,2013-10-02 07:01:00,
2013-10-02 03:06:00,60.3,57.1,30.03,North,0,0.0,0.0,89,0.00,,,0.00,WUHU216HW,2013-10-02 07:06:00,
2013-10-02 03:11:00,60.1,56.6,30.03,North,0,0.0,0.0,88,0.00,,,0.00,WUHU216HW,2013-10-02 07:11:00,
2013-10-02 03:16:00,60.1,56.6,30.03,North,0,0.0,0.0,88,0.00,,,0.00,WUHU216HW,2013-10-02 07:16:00,
2013-10-02 03:21:00,59.9,56.4,30.03,North,0,0.0,0.0,88,0.00,,,0.00,WUHU216HW,2013-10-02 07:21:00,
2013-10-02 03:26:00,59.9,56.7,30.03,North,0,0.0,0.0,89,0.00,,,0.00,WUHU216HW,2013-10-02 07:26:00,
2013-10-02 03:31:00,59.8,56.5,30.03,North,0,0.0,0.0,89,0.00,,,0.00,WUHU216HW,2013-10-02 07:31:00,
2013-10-02 03:36:00,59.8,56.3,30.03,North,0,0.0,0.0,88,0.00,,,0.00,WUHU216HW,2013-10-02 07:36:00,
2013-10-02 03:41:00,59.8,56.3,30.03,North,0,0.0,0.0,88,0.00,,,0.00,WUHU216HW,2013-10-02 07:41:00,
2013-10-02 03:46:00,59.6,56.3,30.03,North,0,0.0,0.0,89,0.00,,,0.00,WUHU216HW,2013-10-02 07:46:00,
2013-10-02 03:51:00,59.4,56.2,30.03,North,0,0.0,0.0,89,0.00,,,0.00,WUHU216HW,2013-10-02 07:51:00,
2013-10-02 03:56:00,59.4,56.2,30.03,North,0,0.0,0.0,89,0.00,,,0.00,WUHU216HW,2013-10-02 07:56:00,
2013-10-02 04:01:00,59.2,56.0,30.03,North,0,0.0,0.0,89,0.00,,,0.00,WUHU216HW,2013-10-02 08:01:00,
2013-10-02 04:06:00,59.2,56.0,30.03,North,0,0.0,0.0,89,0.00,,,0.00,WUHU216HW,2013-10-02 08:06:00,
2013-10-02 04:11:00,59.2,56.3,30.03,North,0,0.0,0.0,90,0.00,,,0.00,WUHU216HW,2013-10-02 08:11:00,
2013-10-02 04:16:00,59.2,56.0,30.03,North,0,0.0,0.0,89,0.00,,,0.00,WUHU216HW,2013-10-02 08:16:00,
2013-10-02 04:21:00,59.4,56.2,30.03,North,0,0.0,0.0,89,0.00,,,0.00,WUHU216HW,2013-10-02 08:21:00,
2013-10-02 04:26:00,59.2,56.0,30.03,North,0,0.0,0.0,89,0.00,,,0.00,WUHU216HW,2013-10-02 08:26:00,
2013-10-02 04:31:00,59.0,55.8,30.03,North,0,0.0,0.0,89,0.00,,,0.00,WUHU216HW,2013-10-02 08:31:00,
2013-10-02 04:36:00,58.9,55.6,30.03,North,0,0.0,0.0,89,0.00,,,0.00,WUHU216HW,2013-10-02 08:36:00,
2013-10-02 04:41:00,58.7,55.4,30.03,North,0,0.0,0.0,89,0.00,,,0.00,WUHU216HW,2013-10-02 08:41:00,
2013-10-02 04:46:00,58.7,55.4,30.03,North,0,0.0,0.0,89,0.00,,,0.00,WUHU216HW,2013-10-02 08:46:00,
2013-10-02 04:51:00,58.5,55.3,30.03,North,0,0.0,0.0,89,0.00,,,0.00,WUHU216HW,2013-10-02 08:51:00,
2013-10-02 04:56:00,58.3,55.1,30.03,North,0,0.0,0.0,89,0.00,,,0.00,WUHU216HW,2013-10-02 08:56:00,
2013-10-02 05:01:00,58.3,55.1,30.03,North,0,0.0,0.0,89,0.00,,,0.00,WUHU216HW,2013-10-02 09:01:00,
2013-10-02 05:06:00,58.3,55.1,30.03,North,0,0.0,0.0,89,0.00,,,0.00,WUHU216HW,2013-10-02 09:06:00,
2013-10-02 05:11:00,58.3,55.1,30.03,North,0,0.0,0.0,89,0.00,,,0.00,WUHU216HW,2013-10-02 09:11:00,
2013-10-02 05:16:00,58.1,54.9,30.03,North,0,0.0,0.0,89,0.00,,,0.00,WUHU216HW,2013-10-02 09:16:00,
2013-10-02 05:21:00,58.1,54.9,30.03,North,0,0.0,0.0,89,0.00,,,0.00,WUHU216HW,2013-10-02 09:21:00,
2013-10-02 05:26:00,58.1,54.9,30.03,North,0,0.0,0.0,89,0.00,,,0.00,WUHU216HW,2013-10-02 09:26:00,
2013-10-02 05:31:00,58.3,55.4,30.03,North,0,0.0,0.0,90,0.00,,,0.00,WUHU216HW,2013-10-02 09:31:00,
2013-10-02 05:36:00,58.1,54.9,30.03,North,0,0.0,0.0,89,0.00,,,0.00,WUHU216HW,2013-10-02 09:36:00,
2013-10-02 05:41:00,58.3,55.4,30.03,North,0,0.0,0.0,90,0.00,,,0.00,WUHU216HW,2013-10-02 09:41:00,
2013-10-02 05:46:00,58.3,55.4,30.03,North,0,0.0,0.0,90,0.00,,,0.00,WUHU216HW,2013-10-02 09:46:00,
2013-10-02 06:00:00,58.0,54.5,30.04,North,0,0.0,0.0,88,0.00,,,0.00,WUHU216HW,2013-10-02 10:00:00,
2013-10-02 06:05:00,57.8,54.5,30.04,North,0,0.0,0.0,89,0.00,,,0.00,WUHU216HW,2013-10-02 10:05:00,
2013-10-02 06:10:00,57.8,54.5,30.04,North,0,0.0,0.0,89,0.00,,,0.00,WUHU216HW,2013-10-02 10:10:00,
2013-10-02 06:15:00,57.6,54.4,30.04,North,0,0.0,0.0,89,0.00,,,0.00,WUHU216HW,2013-10-02 10:15:00,
2013-10-02 06:20:00,57.4,54.2,30.05,North,0,0.0,0.0,89,0.00,,,0.00,WUHU216HW,2013-10-02 10:20:00,
2013-10-02 06:25:00,57.2,54.0,30.05,North,0,0.0,0.0,89,0.00,,,0.00,WUHU216HW,2013-10-02 10:25:00,
2013-10-02 06:30:00,57.2,54.0,30.05,North,0,0.0,0.0,89,0.00,,,0.00,WUHU216HW,2013-10-02 10:30:00,
2013-10-02 06:35:00,57.2,54.0,30.05,North,0,0.0,0.0,89,0.00,,,0.00,WUHU216HW,2013-10-02 10:35:00,
2013-10-02 06:39:00,57.2,54.0,30.05,North,0,0.0,0.0,89,0.00,,,0.00,WUHU216HW,2013-10-02 10:39:00,
2013-10-02 06:44:00,57.2,54.0,30.05,North,0,0.0,0.0,89,0.00,,,0.00,WUHU216HW,2013-10-02 10:44:00,
2013-10-02 06:49:00,57.2,54.0,30.05,North,0,0.0,0.0,89,0.00,,,0.00,WUHU216HW,2013-10-02 10:49:00,
2013-10-02 06:54:00,57.2,54.0,30.05,North,0,0.0,0.0,89,0.00,,,0.00,WUHU216HW,2013-10-02 10:54:00,
2013-10-02 06:59:00,57.2,54.0,30.05,North,0,0.0,0.0,89,0.00,,,0.00,WUHU216HW,2013-10-02 10:59:00,
2013-10-02 07:04:00,56.9,53.6,30.06,North,0,0.0,0.0,89,0.00,,,0.00,WUHU216HW,2013-10-02 11:04:00,
2013-10-02 07:09:00,56.9,53.6,30.06,North,0,0.0,0.0,89,0.00,,,0.00,WUHU216HW,2013-10-02 11:09:00,
2013-10-02 07:14:00,56.7,53.5,30.05,North,0,0.0,0.0,89,0.00,,,0.00,WUHU216HW,2013-10-02 11:14:00,
2013-10-02 07:19:00,56.7,53.5,30.06,North,0,0.0,0.0,89,0.00,,,0.00,WUHU216HW,2013-10-02 11:19:00,
2013-10-02 07:24:00,56.5,53.3,30.06,North,0,0.0,0.0,89,0.00,,,0.00,WUHU216HW,2013-10-02 11:24:00,
2013-10-02 07:29:00,56.5,53.3,30.06,North,0,0.0,0.0,89,0.00,,,0.00,WUHU216HW,2013-10-02 11:29:00,
2013-10-02 07:34:00,56.3,53.1,30.06,North,0,0.0,0.0,89,0.00,,,0.00,WUHU216HW,2013-10-02 11:34:00,
2013-10-02 07:39:00,56.3,53.5,30.06,North,0,0.0,0.0,90,0.00,,,0.00,WUHU216HW,2013-10-02 11:39:00,
2013-10-02 07:44:00,56.3,53.7,30.06,North,0,0.0,0.0,91,0.00,,,0.00,WUHU216HW,2013-10-02 11:44:00,
2013-10-02 07:49:00,56.5,53.6,30.07,North,0,0.0,0.0,90,0.00,,,0.00,WUHU216HW,2013-10-02 11:49:00,
2013-10-02 07:54:00,56.5,53.6,30.07,North,0,0.0,0.0,90,0.00,,,0.00,WUHU216HW,2013-10-02 11:54:00,
2013-10-02 07:59:00,56.5,53.9,30.07,North,0,0.0,0.0,91,0.00,,,0.00,WUHU216HW,2013-10-02 11:59:00,
2013-10-02 08:04:00,56.7,54.1,30.07,North,0,0.0,0.0,91,0.00,,,0.00,WUHU216HW,2013-10-02 12:04:00,
2013-10-02 08:09:00,56.9,54.3,30.07,North,0,0.0,0.0,91,0.00,,,0.00,WUHU216HW,2013-10-02 12:09:00,
2013-10-02 08:14:00,56.7,53.8,30.07,North,0,0.0,0.0,90,0.00,,,0.00,WUHU216HW,2013-10-02 12:14:00,
2013-10-02 08:19:00,56.7,53.8,30.07,North,0,0.0,0.0,90,0.00,,,0.00,WUHU216HW,2013-10-02 12:19:00,
2013-10-02 08:24:00,56.7,53.8,30.07,North,0,0.0,0.0,90,0.00,,,0.00,WUHU216HW,2013-10-02 12:24:00,
2013-10-02 08:29:00,56.5,53.6,30.07,North,0,0.0,0.0,90,0.00,,,0.00,WUHU216HW,2013-10-02 12:29:00,
2013-10-02 08:34:00,56.7,54.1,30.07,North,0,0.0,0.0,91,0.00,,,0.00,WUHU216HW,2013-10-02 12:34:00,
2013-10-02 08:39:00,56.9,54.3,30.08,North,0,0.0,0.0,91,0.00,,,0.00,WUHU216HW,2013-10-02 12:39:00,
2013-10-02 08:44:00,57.1,54.5,30.08,North,0,0.0,0.0,91,0.00,,,0.00,WUHU216HW,2013-10-02 12:44:00,
2013-10-02 08:49:00,57.2,54.6,30.08,North,0,0.0,0.0,91,0.00,,,0.00,WUHU216HW,2013-10-02 12:49:00,
2013-10-02 08:54:00,57.6,55.0,30.08,North,0,0.0,0.0,91,0.00,,,0.00,WUHU216HW,2013-10-02 12:54:00,
2013-10-02 08:59:00,57.8,55.2,30.08,North,0,0.0,0.0,91,0.00,,,0.00,WUHU216HW,2013-10-02 12:59:00,
2013-10-02 09:04:00,58.0,55.4,30.08,North,0,0.0,0.0,91,0.00,,,0.00,WUHU216HW,2013-10-02 13:04:00,
2013-10-02 09:09:00,58.0,55.4,30.08,North,0,0.0,0.0,91,0.00,,,0.00,WUHU216HW,2013-10-02 13:09:00,
2013-10-02 09:14:00,58.3,55.7,30.08,North,0,0.0,0.0,91,0.00,,,0.00,WUHU216HW,2013-10-02 13:14:00,
2013-10-02 09:19:00,58.7,56.1,30.08,North,0,0.0,0.0,91,0.00,,,0.00,WUHU216HW,2013-10-02 13:19:00,
2013-10-02 09:24:00,59.2,56.9,30.07,North,0,0.0,0.0,92,0.00,,,0.00,WUHU216HW,2013-10-02 13:24:00,
2013-10-02 09:29:00,59.8,57.4,30.08,North,0,0.0,0.0,92,0.00,,,0.00,WUHU216HW,2013-10-02 13:29:00,
2013-10-02 09:34:00,60.1,57.8,30.08,North,0,0.0,0.0,92,0.00,,,0.00,WUHU216HW,2013-10-02 13:34:00,
2013-10-02 09:39:00,60.5,58.1,30.08,North,0,0.0,0.0,92,0.00,,,0.00,WUHU216HW,2013-10-02 13:39:00,
2013-10-02 09:44:00,61.0,58.7,30.08,North,0,0.0,0.0,92,0.00,,,0.00,WUHU216HW,2013-10-02 13:44:00,
2013-10-02 09:49:00,61.6,59.2,30.08,North,0,0.0,0.0,92,0.00,,,0.00,WUHU216HW,2013-10-02 13:49:00,
2013-10-02 09:54:00,62.3,59.9,30.07,North,0,0.0,0.0,92,0.00,,,0.00,WUHU216HW,2013-10-02 13:54:00,
2013-10-02 09:59:00,63.0,60.7,30.08,North,0,0.0,0.0,92,0.00,,,0.00,WUHU216HW,2013-10-02 13:59:00,
2013-10-02 10:04:00,63.5,61.2,30.08,North,0,0.0,0.0,92,0.00,,,0.00,WUHU216HW,2013-10-02 14:04:00,
2013-10-02 10:09:00,63.9,61.3,30.08,North,0,0.0,0.0,91,0.00,,,0.00,WUHU216HW,2013-10-02 14:09:00,
2013-10-02 10:14:00,64.4,61.8,30.08,North,0,0.0,0.0,91,0.00,,,0.00,WUHU216HW,2013-10-02 14:14:00,
2013-10-02 10:19:00,64.8,62.2,30.08,North,0,0.0,0.0,91,0.00,,,0.00,WUHU216HW,2013-10-02 14:19:00,
2013-10-02 10:24:00,65.3,62.4,30.08,North,0,0.0,0.0,90,0.00,,,0.00,WUHU216HW,2013-10-02 14:24:00,
2013-10-02 10:29:00,66.1,63.4,30.08,North,0,0.0,0.0,91,0.00,,,0.00,WUHU216HW,2013-10-02 14:29:00,
2013-10-02 10:34:00,66.6,63.5,30.08,North,0,0.0,0.0,90,0.00,,,0.00,WUHU216HW,2013-10-02 14:34:00,
2013-10-02 10:39:00,67.0,63.3,30.08,North,0,0.0,0.0,88,0.00,,,0.00,WUHU216HW,2013-10-02 14:39:00,
2013-10-02 10:44:00,67.5,63.8,30.08,North,0,0.0,0.0,88,0.00,,,0.00,WUHU216HW,2013-10-02 14:44:00,
2013-10-02 10:49:00,68.0,63.0,30.08,North,0,0.0,0.0,84,0.00,,,0.00,WUHU216HW,2013-10-02 14:49:00,
2013-10-02 10:54:00,68.4,64.4,30.08,North,0,0.0,0.0,87,0.00,,,0.00,WUHU216HW,2013-10-02 14:54:00,
2013-10-02 10:59:00,68.8,64.1,30.08,North,0,0.0,0.0,85,0.00,,,0.00,WUHU216HW,2013-10-02 14:59:00,
2013-10-02 11:04:00,69.3,63.5,30.08,North,0,0.0,0.0,82,0.00,,,0.00,WUHU216HW,2013-10-02 15:04:00,
2013-10-02 11:09:00,69.8,64.7,30.08,North,0,0.0,0.0,84,0.00,,,0.00,WUHU216HW,2013-10-02 15:09:00,
2013-10-02 11:14:00,70.4,64.6,30.08,North,0,0.0,0.0,82,0.00,,,0.00,WUHU216HW,2013-10-02 15:14:00,
2013-10-02 11:19:00,70.9,64.4,30.08,North,0,0.0,0.0,80,0.00,,,0.00,WUHU216HW,2013-10-02 15:19:00,
2013-10-02 11:24:00,71.5,64.6,30.08,North,0,0.0,0.0,79,0.00,,,0.00,WUHU216HW,2013-10-02 15:24:00,
2013-10-02 11:29:00,71.8,63.1,30.08,North,0,0.0,0.0,74,0.00,,,0.00,WUHU216HW,2013-10-02 15:29:00,
2013-10-02 11:33:00,72.2,64.2,30.07,North,0,0.0,0.0,76,0.00,,,0.00,WUHU216HW,2013-10-02 15:33:00,
2013-10-02 11:38:00,72.7,64.7,30.07,North,0,0.0,0.0,76,0.00,,,0.00,WUHU216HW,2013-10-02 15:38:00,
2013-10-02 11:43:00,73.1,65.4,30.07,North,0,0.0,0.0,77,0.00,,,0.00,WUHU216HW,2013-10-02 15:43:00,
2013-10-02 11:48:00,73.4,65.8,30.07,North,0,0.0,0.0,77,0.00,,,0.00,WUHU216HW,2013-10-02 15:48:00,
2013-10-02 11:53:00,74.0,65.6,30.07,North,0,0.0,0.0,75,0.00,,,0.00,WUHU216HW,2013-10-02 15:53:00,
2013-10-02 11:58:00,74.7,65.1,30.07,North,0,0.0,0.0,72,0.00,,,0.00,WUHU216HW,2013-10-02 15:58:00,
2013-10-02 12:03:00,75.6,66.3,30.07,North,0,0.0,0.0,73,0.00,,,0.00,WUHU216HW,2013-10-02 16:03:00,
2013-10-02 12:08:00,76.0,66.3,30.07,North,0,0.0,0.0,72,0.00,,,0.00,WUHU216HW,2013-10-02 16:08:00,
2013-10-02 12:13:00,75.4,65.3,30.07,North,0,0.0,0.0,71,0.00,,,0.00,WUHU216HW,2013-10-02 16:13:00,
2013-10-02 12:18:00,76.1,66.1,30.07,North,0,0.0,0.0,71,0.00,,,0.00,WUHU216HW,2013-10-02 16:18:00,
2013-10-02 12:23:00,76.3,66.7,30.07,North,0,0.0,0.0,72,0.00,,,0.00,WUHU216HW,2013-10-02 16:23:00,
2013-10-02 12:28:00,77.4,67.3,30.06,North,0,0.0,0.0,71,0.00,,,0.00,WUHU216HW,2013-10-02 16:28:00,
2013-10-02 12:33:00,78.5,67.5,30.06,North,0,0.0,0.0,69,0.00,,,0.00,WUHU216HW,2013-10-02 16:33:00,
2013-10-02 12:38:00,79.0,67.2,30.06,North,0,0.0,0.0,67,0.00,,,0.00,WUHU216HW,2013-10-02 16:38:00,
2013-10-02 12:43:00,79.0,67.5,30.06,North,0,0.0,0.0,68,0.00,,,0.00,WUHU216HW,2013-10-02 16:43:00,
2013-10-02 12:48:00,78.8,66.1,30.06,North,0,0.0,0.0,65,0.00,,,0.00,WUHU216HW,2013-10-02 16:48:00,
2013-10-02 12:53:00,78.1,65.8,30.06,North,0,0.0,0.0,66,0.00,,,0.00,WUHU216HW,2013-10-02 16:53:00,
2013-10-02 12:58:00,77.8,65.1,30.05,North,0,0.0,0.0,65,0.00,,,0.00,WUHU216HW,2013-10-02 16:58:00,
2013-10-02 13:03:00,78.5,65.7,30.05,North,0,0.0,0.0,65,0.00,,,0.00,WUHU216HW,2013-10-02 17:03:00,
2013-10-02 13:08:00,78.8,64.8,30.04,North,0,0.0,0.0,62,0.00,,,0.00,WUHU216HW,2013-10-02 17:08:00,
2013-10-02 13:13:00,79.0,66.3,30.04,North,0,0.0,0.0,65,0.00,,,0.00,WUHU216HW,2013-10-02 17:13:00,
2013-10-02 13:18:00,78.7,66.8,30.04,North,0,0.0,0.0,67,0.00,,,0.00,WUHU216HW,2013-10-02 17:18:00,
2013-10-02 13:23:00,78.1,65.3,30.04,North,0,0.0,0.0,65,0.00,,,0.00,WUHU216HW,2013-10-02 17:23:00,
2013-10-02 13:28:00,78.3,66.0,30.04,North,0,0.0,0.0,66,0.00,,,0.00,WUHU216HW,2013-10-02 17:28:00,
2013-10-02 13:33:00,78.7,66.3,30.04,North,0,0.0,0.0,66,0.00,,,0.00,WUHU216HW,2013-10-02 17:33:00,
2013-10-02 13:38:00,79.2,64.3,30.04,North,0,0.0,0.0,60,0.00,,,0.00,WUHU216HW,2013-10-02 17:38:00,
2013-10-02 13:43:00,80.3,66.1,30.04,North,0,0.0,0.0,62,0.00,,,0.00,WUHU216HW,2013-10-02 17:43:00,
2013-10-02 13:48:00,80.5,65.3,30.03,North,0,0.0,0.0,60,0.00,,,0.00,WUHU216HW,2013-10-02 17:48:00,
2013-10-02 13:53:00,81.7,66.0,30.03,North,0,0.0,0.0,59,0.00,,,0.00,WUHU216HW,2013-10-02 17:53:00,
2013-10-02 13:58:00,81.7,64.5,30.03,North,0,0.0,0.0,56,0.00,,,0.00,WUHU216HW,2013-10-02 17:58:00,
2013-10-02 14:03:00,81.2,63.4,30.03,North,0,0.0,0.0,55,0.00,,,0.00,WUHU216HW,2013-10-02 18:03:00,
2013-10-02 14:08:00,80.3,63.6,30.03,North,0,0.0,0.0,57,0.00,,,0.00,WUHU216HW,2013-10-02 18:08:00,
2013-10-02 14:13:00,78.7,63.2,30.02,North,0,0.0,0.0,59,0.00,,,0.00,WUHU216HW,2013-10-02 18:13:00,
2013-10-02 14:18:00,77.9,63.9,30.02,North,0,0.0,0.0,62,0.00,,,0.00,WUHU216HW,2013-10-02 18:18:00,
2013-10-02 14:23:00,76.7,63.5,30.02,North,0,0.0,0.0,64,0.00,,,0.00,WUHU216HW,2013-10-02 18:23:00,
2013-10-02 14:28:00,77.0,64.8,30.02,North,0,0.0,0.0,66,0.00,,,0.00,WUHU216HW,2013-10-02 18:28:00,
2013-10-02 14:33:00,77.4,65.2,30.02,North,0,0.0,0.0,66,0.00,,,0.00,WUHU216HW,2013-10-02 18:33:00,
2013-10-02 14:38:00,77.8,65.5,30.02,North,0,0.0,0.0,66,0.00,,,0.00,WUHU216HW,2013-10-02 18:38:00,
2013-10-02 14:43:00,78.7,65.9,30.02,North,0,0.0,0.0,65,0.00,,,0.00,WUHU216HW,2013-10-02 18:43:00,
2013-10-02 14:48:00,78.8,65.6,30.02,North,0,0.0,0.0,64,0.00,,,0.00,WUHU216HW,2013-10-02 18:48:00,
2013-10-02 14:53:00,77.9,65.3,30.01,North,0,0.0,0.0,65,0.00,,,0.00,WUHU216HW,2013-10-02 18:53:00,
2013-10-02 14:58:00,77.9,65.6,30.01,North,0,0.0,0.0,66,0.00,,,0.00,WUHU216HW,2013-10-02 18:58:00,
2013-10-02 15:03:00,78.7,65.0,30.01,North,0,0.0,0.0,63,0.00,,,0.00,WUHU216HW,2013-10-02 19:03:00,
2013-10-02 15:08:00,79.6,65.9,30.01,North,0,0.0,0.0,63,0.00,,,0.00,WUHU216HW,2013-10-02 19:08:00,
2013-10-02 15:13:00,79.6,64.5,30.01,North,0,0.0,0.0,60,0.00,,,0.00,WUHU216HW,2013-10-02 19:13:00,
2013-10-02 15:18:00,79.9,63.8,30.01,North,0,0.0,0.0,58,0.00,,,0.00,WUHU216HW,2013-10-02 19:18:00,
2013-10-02 15:23:00,79.9,62.8,30.01,North,0,0.0,0.0,56,0.00,,,0.00,WUHU216HW,2013-10-02 19:23:00,
2013-10-02 15:28:00,79.6,62.5,30.00,North,0,0.0,0.0,56,0.00,,,0.00,WUHU216HW,2013-10-02 19:28:00,
2013-10-02 15:33:00,80.1,62.9,30.01,North,0,0.0,0.0,56,0.00,,,0.00,WUHU216HW,2013-10-02 19:33:00,
2013-10-02 15:38:00,80.3,64.2,30.00,North,0,0.0,0.0,58,0.00,,,0.00,WUHU216HW,2013-10-02 19:38:00,
2013-10-02 15:43:00,79.9,64.4,30.00,North,0,0.0,0.0,59,0.00,,,0.00,WUHU216HW,2013-10-02 19:43:00,
2013-10-02 15:48:00,79.7,64.7,30.00,North,0,0.0,0.0,60,0.00,,,0.00,WUHU216HW,2013-10-02 19:48:00,
2013-10-02 15:53:00,78.7,64.2,29.99,North,0,0.0,0.0,61,0.00,,,0.00,WUHU216HW,2013-10-02 19:53:00,
2013-10-02 15:58:00,77.9,65.3,30.00,North,0,0.0,0.0,65,0.00,,,0.00,WUHU216HW,2013-10-02 19:58:00,
2013-10-02 16:03:00,77.8,64.6,30.00,North,0,0.0,0.0,64,0.00,,,0.00,WUHU216HW,2013-10-02 20:03:00,
2013-10-02 16:08:00,77.4,64.7,30.00,North,0,0.0,0.0,65,0.00,,,0.00,WUHU216HW,2013-10-02 20:08:00,
2013-10-02 16:13:00,76.7,64.4,29.99,North,0,0.0,0.0,66,0.00,,,0.00,WUHU216HW,2013-10-02 20:13:00,
2013-10-02 16:18:00,76.0,64.2,30.00,North,0,0.0,0.0,67,0.00,,,0.00,WUHU216HW,2013-10-02 20:18:00,
2013-10-02 16:23:00,76.0,64.6,30.00,North,0,0.0,0.0,68,0.00,,,0.00,WUHU216HW,2013-10-02 20:23:00,
2013-10-02 16:28:00,76.0,64.6,29.99,North,0,0.0,0.0,68,0.00,,,0.00,WUHU216HW,2013-10-02 20:28:00,
2013-10-02 16:33:00,76.7,64.4,29.99,North,0,0.0,0.0,66,0.00,,,0.00,WUHU216HW,2013-10-02 20:33:00,
2013-10-02 16:38:00,77.0,64.4,29.99,North,0,0.0,0.0,65,0.00,,,0.00,WUHU216HW,2013-10-02 20:38:00,
2013-10-02 16:43:00,77.4,63.4,29.99,North,0,0.0,0.0,62,0.00,,,0.00,WUHU216HW,2013-10-02 20:43:00,
2013-10-02 16:48:00,77.6,64.9,29.99,North,0,0.0,0.0,65,0.00,,,0.00,WUHU216HW,2013-10-02 20:48:00,
2013-10-02 16:53:00,77.2,64.1,29.99,North,0,0.0,0.0,64,0.00,,,0.00,WUHU216HW,2013-10-02 20:53:00,
2013-10-02 16:58:00,77.0,64.4,29.99,North,0,0.0,0.0,65,0.00,,,0.00,WUHU216HW,2013-10-02 20:58:00,
2013-10-02 17:03:00,76.7,64.0,29.99,North,0,0.0,0.0,65,0.00,,,0.00,WUHU216HW,2013-10-02 21:03:00,
2013-10-02 17:08:00,76.5,64.3,29.98,North,0,0.0,0.0,66,0.00,,,0.00,WUHU216HW,2013-10-02 21:08:00,
2013-10-02 17:13:00,76.0,63.7,29.99,North,0,0.0,0.0,66,0.00,,,0.00,WUHU216HW,2013-10-02 21:13:00,
2013-10-02 17:18:00,75.4,64.1,29.99,North,0,0.0,0.0,68,0.00,,,0.00,WUHU216HW,2013-10-02 21:18:00,
2013-10-02 17:23:00,75.2,63.9,29.99,North,0,0.0,0.0,68,0.00,,,0.00,WUHU216HW,2013-10-02 21:23:00,
2013-10-02 17:28:00,75.2,63.9,29.99,North,0,0.0,0.0,68,0.00,,,0.00,WUHU216HW,2013-10-02 21:28:00,
2013-10-02 17:33:00,75.4,64.1,29.99,North,0,0.0,0.0,68,0.00,,,0.00,WUHU216HW,2013-10-02 21:33:00,
2013-10-02 17:38:00,75.6,64.3,29.99,North,0,0.0,0.0,68,0.00,,,0.00,WUHU216HW,2013-10-02 21:38:00,
2013-10-02 17:43:00,75.6,64.7,29.99,North,0,0.0,0.0,69,0.00,,,0.00,WUHU216HW,2013-10-02 21:43:00,
2013-10-02 17:48:00,75.4,64.5,29.99,North,0,0.0,0.0,69,0.00,,,0.00,WUHU216HW,2013-10-02 21:48:00,
2013-10-02 17:53:00,75.2,64.8,29.99,North,0,0.0,0.0,70,0.00,,,0.00,WUHU216HW,2013-10-02 21:53:00,
2013-10-02 17:58:00,75.1,65.1,29.99,North,0,0.0,0.0,71,0.00,,,0.00,WUHU216HW,2013-10-02 21:58:00,
2013-10-02 18:03:00,74.9,64.9,29.99,North,0,0.0,0.0,71,0.00,,,0.00,WUHU216HW,2013-10-02 22:03:00,
2013-10-02 18:08:00,74.5,64.5,29.99,North,0,0.0,0.0,71,0.00,,,0.00,WUHU216HW,2013-10-02 22:08:00,
2013-10-02 18:13:00,74.3,64.8,29.99,North,0,0.0,0.0,72,0.00,,,0.00,WUHU216HW,2013-10-02 22:13:00,
2013-10-02 18:18:00,74.2,64.6,29.99,North,0,0.0,0.0,72,0.00,,,0.00,WUHU216HW,2013-10-02 22:18:00,
2013-10-02 18:23:00,73.8,64.6,30.00,North,0,0.0,0.0,73,0.00,,,0.00,WUHU216HW,2013-10-02 22:23:00,
2013-10-02 18:28:00,73.8,64.6,29.99,North,0,0.0,0.0,73,0.00,,,0.00,WUHU216HW,2013-10-02 22:28:00,
2013-10-02 18:33:00,73.8,64.6,29.99,North,0,0.0,0.0,73,0.00,,,0.00,WUHU216HW,2013-10-02 22:33:00,
2013-10-02 18:54:00,72.5,64.5,30.00,North,0,0.0,0.0,76,0.00,,,0.00,WUHU216HW,2013-10-02 22:54:00,
2013-10-02 18:59:00,72.4,64.4,29.99,North,0,0.0,0.0,76,0.00,,,0.00,WUHU216HW,2013-10-02 22:59:00,
2013-10-02 19:04:00,72.4,64.4,29.99,North,0,0.0,0.0,76,0.00,,,0.00,WUHU216HW,2013-10-02 23:04:00,
2013-10-02 19:09:00,72.2,64.2,30.00,North,0,0.0,0.0,76,0.00,,,0.00,WUHU216HW,2013-10-02 23:09:00,
2013-10-02 19:14:00,72.4,64.7,30.00,North,0,0.0,0.0,77,0.00,,,0.00,WUHU216HW,2013-10-02 23:14:00,
2013-10-02 19:19:00,72.2,64.5,30.00,North,0,0.0,0.0,77,0.00,,,0.00,WUHU216HW,2013-10-02 23:19:00,
2013-10-02 19:24:00,72.2,64.5,30.00,North,0,0.0,0.0,77,0.00,,,0.00,WUHU216HW,2013-10-02 23:24:00,
2013-10-02 19:29:00,72.0,64.4,30.00,North,0,0.0,0.0,77,0.00,,,0.00,WUHU216HW,2013-10-02 23:29:00,
2013-10-02 19:34:00,71.8,64.2,30.00,North,0,0.0,0.0,77,0.00,,,0.00,WUHU216HW,2013-10-02 23:34:00,
2013-10-02 19:39:00,71.6,64.0,30.00,North,0,0.0,0.0,77,0.00,,,0.00,WUHU216HW,2013-10-02 23:39:00,
2013-10-02 19:44:00,71.5,63.8,30.00,North,0,0.0,0.0,77,0.00,,,0.00,WUHU216HW,2013-10-02 23:44:00,
2013-10-02 19:49:00,71.3,63.6,30.00,North,0,0.0,0.0,77,0.00,,,0.00,WUHU216HW,2013-10-02 23:49:00,
2013-10-02 19:54:00,71.1,63.9,30.00,North,0,0.0,0.0,78,0.00,,,0.00,WUHU216HW,2013-10-02 23:54:00,
2013-10-02 19:59:00,70.9,63.7,30.00,North,0,0.0,0.0,78,0.00,,,0.00,WUHU216HW,2013-10-02 23:59:00,
2013-10-02 20:04:00,70.7,63.6,30.00,North,0,0.0,0.0,78,0.00,,,0.00,WUHU216HW,2013-10-03 00:04:00,
2013-10-02 20:09:00,70.4,63.6,30.00,North,0,0.0,0.0,79,0.00,,,0.00,WUHU216HW,2013-10-03 00:09:00,
2013-10-02 20:14:00,70.2,63.7,30.00,North,0,0.0,0.0,80,0.00,,,0.00,WUHU216HW,2013-10-03 00:14:00,
2013-10-02 20:19:00,70.2,63.7,30.01,North,0,0.0,0.0,80,0.00,,,0.00,WUHU216HW,2013-10-03 00:19:00,
2013-10-02 20:24:00,70.0,63.5,30.01,North,0,0.0,0.0,80,0.00,,,0.00,WUHU216HW,2013-10-03 00:24:00,
2013-10-02 20:29:00,69.8,63.4,30.01,North,0,0.0,0.0,80,0.00,,,0.00,WUHU216HW,2013-10-03 00:29:00,
2013-10-02 20:34:00,69.7,63.6,30.01,North,0,0.0,0.0,81,0.00,,,0.00,WUHU216HW,2013-10-03 00:34:00,
2013-10-02 20:39:00,69.7,63.6,30.01,North,0,0.0,0.0,81,0.00,,,0.00,WUHU216HW,2013-10-03 00:39:00,
2013-10-02 20:44:00,69.7,63.6,30.01,North,0,0.0,0.0,81,0.00,,,0.00,WUHU216HW,2013-10-03 00:44:00,
2013-10-02 20:49:00,69.7,63.6,30.01,North,0,0.0,0.0,81,0.00,,,0.00,WUHU216HW,2013-10-03 00:49:00,
2013-10-02 20:54:00,69.5,63.0,30.01,North,0,0.0,0.0,80,0.00,,,0.00,WUHU216HW,2013-10-03 00:54:00,
2013-10-02 20:59:00,69.5,63.4,30.01,North,0,0.0,0.0,81,0.00,,,0.00,WUHU216HW,2013-10-03 00:59:00,
2013-10-02 21:04:00,69.3,63.2,30.01,North,0,0.0,0.0,81,0.00,,,0.00,WUHU216HW,2013-10-03 01:04:00,
2013-10-02 21:09:00,69.1,63.4,30.01,North,0,0.0,0.0,82,0.00,,,0.00,WUHU216HW,2013-10-03 01:09:00,
2013-10-02 21:14:00,68.8,63.1,30.01,North,0,0.0,0.0,82,0.00,,,0.00,WUHU216HW,2013-10-03 01:14:00,
2013-10-02 21:19:00,68.6,63.2,30.01,North,0,0.0,0.0,83,0.00,,,0.00,WUHU216HW,2013-10-03 01:19:00,
2013-10-02 21:24:00,68.4,63.1,30.02,North,0,0.0,0.0,83,0.00,,,0.00,WUHU216HW,2013-10-03 01:24:00,
2013-10-02 21:29:00,68.4,63.1,30.02,North,0,0.0,0.0,83,0.00,,,0.00,WUHU216HW,2013-10-03 01:29:00,
2013-10-02 21:34:00,68.2,62.9,30.02,North,0,0.0,0.0,83,0.00,,,0.00,WUHU216HW,2013-10-03 01:34:00,
2013-10-02 21:39:00,68.2,63.2,30.02,North,0,0.0,0.0,84,0.00,,,0.00,WUHU216HW,2013-10-03 01:39:00,
2013-10-02 21:44:00,68.0,63.0,30.02,North,0,0.0,0.0,84,0.00,,,0.00,WUHU216HW,2013-10-03 01:44:00,
2013-10-02 21:49:00,67.9,62.8,30.02,North,0,0.0,0.0,84,0.00,,,0.00,WUHU216HW,2013-10-03 01:49:00,
2013-10-02 21:54:00,68.0,63.0,30.02,North,0,0.0,0.0,84,0.00,,,0.00,WUHU216HW,2013-10-03 01:54:00,
2013-10-02 21:59:00,68.0,63.4,30.03,North,0,0.0,0.0,85,0.00,,,0.00,WUHU216HW,2013-10-03 01:59:00,
2013-10-02 22:04:00,68.0,63.4,30.03,North,0,0.0,0.0,85,0.00,,,0.00,WUHU216HW,2013-10-03 02:04:00,
2013-10-02 22:05:00,68.0,63.0,30.03,North,0,0.0,0.0,84,0.00,,,0.00,WUHU216HW,2013-10-03 02:05:00,
2013-10-02 22:10:00,67.7,62.6,30.03,North,0,0.0,0.0,84,0.00,,,0.00,WUHU216HW,2013-10-03 02:10:00,
2013-10-02 22:15:00,67.5,62.8,30.03,North,0,0.0,0.0,85,0.00,,,0.00,WUHU216HW,2013-10-03 02:15:00,
2013-10-02 22:20:00,67.5,62.8,30.03,North,0,0.0,0.0,85,0.00,,,0.00,WUHU216HW,2013-10-03 02:20:00,
2013-10-02 22:25:00,67.5,62.8,30.03,North,0,0.0,0.0,85,0.00,,,0.00,WUHU216HW,2013-10-03 02:25:00,
2013-10-02 22:30:00,67.5,63.2,30.03,North,0,0.0,0.0,86,0.00,,,0.00,WUHU216HW,2013-10-03 02:30:00,
2013-10-02 22:35:00,67.3,63.0,30.03,North,0,0.0,0.0,86,0.00,,,0.00,WUHU216HW,2013-10-03 02:35:00,
2013-10-02 22:40:00,67.3,63.0,30.04,North,0,0.0,0.0,86,0.00,,,0.00,WUHU216HW,2013-10-03 02:40:00,
2013-10-02 22:45:00,67.3,63.0,30.04,North,0,0.0,0.0,86,0.00,,,0.00,WUHU216HW,2013-10-03 02:45:00,
2013-10-02 22:50:00,67.1,62.8,30.04,North,0,0.0,0.0,86,0.00,,,0.00,WUHU216HW,2013-10-03 02:50:00,
2013-10-02 22:55:00,67.1,62.8,30.04,North,0,0.0,0.0,86,0.00,,,0.00,WUHU216HW,2013-10-03 02:55:00,
2013-10-02 23:00:00,67.1,62.8,30.04,North,0,0.0,0.0,86,0.00,,,0.00,WUHU216HW,2013-10-03 03:00:00,
2013-10-02 23:05:00,67.1,62.8,30.04,North,0,0.0,0.0,86,0.00,,,0.00,WUHU216HW,2013-10-03 03:05:00,
2013-10-02 23:10:00,67.1,62.8,30.04,North,0,0.0,0.0,86,0.00,,,0.00,WUHU216HW,2013-10-03 03:10:00,
2013-10-02 23:35:00,66.6,62.3,30.05,North,0,0.0,0.0,86,0.00,,,0.00,WUHU216HW,2013-10-03 03:35:00,
2013-10-02 23:40:00,66.6,62.6,30.04,North,0,0.0,0.0,87,0.00,,,0.00,WUHU216HW,2013-10-03 03:40:00,
2013-10-02 23:45:00,66.6,62.6,30.04,North,0,0.0,0.0,87,0.00,,,0.00,WUHU216HW,2013-10-03 03:45:00,
2013-10-02 23:50:00,66.6,62.6,30.05,North,0,0.0,0.0,87,0.00,,,0.00,WUHU216HW,2013-10-03 03:50:00,
2013-10-02 23:55:00,66.6,62.6,30.05,North,0,0.0,0.0,87,0.00,,,0.00,WUHU216HW,2013-10-03 03:55:00,